Regional Weather Roundup
Issued by NWS Midland/Odessa, TX

Skip options and go directly to product.
Home | Oldest Version | Previous Version | Current Version | All | Text Only | Save Text | Print | Product List | Glossary On

Skip product version selection by date and time.   
593
ASUS44 KMAF 031210
RWRMAF
MIDLAND AREA WEATHER ROUNDUP
NATIONAL WEATHER SERVICE MIDLAND TX
700 AM CDT TUE MAY 03 2016

...IN SOUTHWEST TEXAS AND SOUTHEAST NEW MEXICO...

CITY           SKY/WX    TMP DP  RH WIND       PRES   REMARKS
ALPINE         CLEAR     38  33  79 SW6       30.19S WCI  34
ANDREWS        FAIR      48  41  76 SW7       30.11S
ARTESIA        CLEAR     41  30  65 W7        30.10S WCI  36
BIG SPRING     CLEAR     44  41  87 SE6       30.14S
CARLSBAD       CLEAR     41  30  65 NW5       30.09R WCI  38
DRYDEN           N/A     53  46  77 NE5       30.10
FORT STOCKTON  CLEAR     48  41  76 S8        30.10S
GUAD PASS      CLEAR     48  34  58 NE13      30.16R
HOBBS          CLEAR     43  37  81 S3        30.12S
MARFA          CLEAR     36  30  79 N6        30.16  WCI  31
MIDLAND AIRPK  CLEAR     52  44  74 S3        30.12S
MIDLAND INTL   CLEAR     51  42  71 CALM      30.11S
ODESSA         CLEAR     51  42  71 SW5       30.11S
PECOS          CLEAR     44  34  69 NE5       30.10S HAZE
PRESIDIO       FAIR      57  40  52 N9        30.08S
SEMINOLE       CLEAR     42  35  77 CALM      30.12S
SNYDER           N/A     45  42  88 S6        30.12S
WINK           CLEAR     42  35  76 NE3       30.10R
$$
...OTHER STATIONS IN TEXAS...

CITY           SKY/WX    TMP DP  RH WIND       PRES   REMARKS
ABILENE        CLEAR     47  45  93 S7        30.11S
AMARILLO       CLEAR     39  34  82 SW9       30.08F WCI  33
AUSTIN         MOCLDY    54  50  86 N5        30.11R
BROWNSVILLE    CLOUDY    66  56  70 N14G21    30.01R
CORPUS CHRISTI CLOUDY    64  52  64 N10       30.04S
DALLAS FTW     CLEAR     49  44  83 CALM      30.09R
DEL RIO        MOCLDY    55  51  86 NE5       30.09F
EL PASO        CLEAR     53  31  42 NE5       30.08R
HOUSTON INT    CLOUDY    57  52  83 N7        30.05R
LUBBOCK        CLEAR     43  35  73 W5        30.10S
SAN ANGELO     CLEAR     41  40  96 SW3       30.12S
SAN ANTONIO    CLOUDY    58  50  75 N5        30.11R
WACO           CLEAR     48  45  89 CALM      30.10R
WICHITA FALLS  NOT AVBL
$$
...OTHER LOCATIONS IN NEW MEXICO...

CITY           SKY/WX    TMP DP  RH WIND       PRES   REMARKS
ALAMAGORDO     CLEAR     52  27  37 N9        30.12S
ALBUQUERQUE    PTCLDY    49  38  65 NE7       30.16S
CANNON AFB     CLEAR     41  34  74 CALM      30.10S
CLOVIS         CLEAR     37  30  75 S5        30.11S WCI  34
HOLLOMAN AFB   CLEAR     44  27  50 NE9       30.10S WCI  39
ROSWELL        CLEAR     37  29  72 SW3       30.09R
RUIDOSO          N/A     39  28  65 W10       30.19S WCI  32
SANTA FE       CLEAR     36  32  85 N7        30.17S WCI  30
TRUTH OR CONSE CLEAR     48  36  63 NW5       30.13S
TUCUMCARI      CLEAR     40  34  79 SW3       30.06F
$$

USA.gov is the U.S. government's official web portal to all federal, state and local government web resources and services.